Voltar ao catálogo

STARLINK-32551

AtivoComunicaçõesVLEO
NORAD 62166·PAYLOAD·🇺🇸 United States

Lançado Nov 30, 2024 de Vandenberg Space Force Base

Loading…

Próximas Passagens (próximas 24 horas)

TLE

AtualizadoSource: CelesTrak SupGP

Época: Sep 14, 2026, 22:57 UTC

1 62166C 24225D   26257.95673611 -.00017478  00000+0 -14648-2 0  2576
2 62166  70.0013  47.1779 0002645 274.0749 212.2964 14.98337834    16

Acompanhe STARLINK-32551 em tempo real com AllMySat

Download on the App Store